Tampa Macdill AFB, FL

5:54 AM EST on December 13, 2019 (GMT -0500)
MacDill Air Force Base

Weather History for KMCF - August, 2019

Change the Weather History Date:

Sunday, August 18, 2019

  Actual Average Record
Temperature  
Mean Temperature 82 °F -  
Max Temperature 90 °F 88 °F 95 °F (2011)
Min Temperature 75 °F 73 °F 69 °F (2002)
Cooling Degree Days 17    
Growing Degree Days 32 (Base 50)    
Moisture  
Dew Point 74 °F    
Average Humidity 80    
Maximum Humidity 90    
Minimum Humidity 63    
Precipitation  
Precipitation 0.01 in - - ()
Sea Level Pressure  
Sea Level Pressure 30.09 in    
Wind  
Wind Speed 7 mph (South)    
Max Wind Speed 18 mph    
Max Gust Speed 26 mph    
Visibility 10 miles    
Events Rain    
Averages and records for this station are not official NWS values.
T = Trace of Precipitation, MM = Missing Value Source: NWS Daily Summary

Daily Weather History Graph

Daily Weather History Graph

Search for Another Location

Airport or City:

Astronomy

Aug. 18, 2019 Rise Set
Actual Time 7:01 AM EDT 8:05 PM EDT
Civil Twilight 6:37 AM EDT 8:30 PM EDT
Nautical Twilight 6:08 AM EDT 8:58 PM EDT
Astronomical Twilight 5:38 AM EDT 9:28 PM EDT
Moon 10:13 PM EDT (8/18) 9:34 AM EDT (8/18)
Length of Visible Light 13h 52m
Length of Day
13h 03m
Waning Gibbous, 91% of the Moon is Illuminated
Aug 18
Waning Gibbous
Aug 23
Last Quarter
Aug 30
New
Sep 5
First Quarter
Sep 14
Full

Hourly Weather History & Observations

Time (EDT) Temp. Heat Index Dew Point Humidity Pressure Visibility Wind Dir Wind Speed Gust Speed Precip Events Conditions
12:56 AM 79.2 °F - 74.5 °F 86% 30.09 in 10.0 mi SSE 5.8 mph - N/A   Clear
1:56 AM 78.6 °F - 74.3 °F 87% 30.08 in 10.0 mi SE 6.9 mph - N/A   Clear
2:56 AM 78.8 °F - 74.5 °F 87% 30.07 in 10.0 mi SSE 6.9 mph - N/A   Partly Cloudy
3:17 AM 77.0 °F - 73.4 °F 89% 30.09 in 10.0 mi South 18.4 mph 26.5 mph N/A Rain Light Rain
3:42 AM 75.2 °F - 69.8 °F 83% 30.09 in 10.0 mi South 16.1 mph 25.3 mph N/A   Overcast
3:56 AM 76.3 °F - 69.6 °F 80% 30.08 in 10.0 mi South 12.7 mph - 0.01 in   Overcast
4:07 AM 77.0 °F - 69.8 °F 78% 30.07 in 10.0 mi South 12.7 mph - N/A   Light Drizzle
4:37 AM 77.0 °F - 69.8 °F 78% 30.06 in 10.0 mi SSW 6.9 mph - N/A   Mostly Cloudy
4:56 AM 77.9 °F - 70.0 °F 76% 30.06 in 10.0 mi SW 6.9 mph - 0.00 in   Mostly Cloudy
5:26 AM 77.0 °F - 71.6 °F 83% 30.05 in 10.0 mi SSE 4.6 mph - N/A   Light Drizzle
5:47 AM 77.0 °F - 71.6 °F 83% 30.05 in 10.0 mi Calm Calm - N/A   Scattered Clouds
5:56 AM 76.6 °F - 71.4 °F 84% 30.06 in 10.0 mi South 3.5 mph - 0.00 in   Partly Cloudy
6:56 AM 77.5 °F - 73.0 °F 86% 30.07 in 10.0 mi Calm Calm - N/A   Mostly Cloudy
7:56 AM 77.2 °F - 73.2 °F 88% 30.10 in 10.0 mi East 3.5 mph - N/A   Scattered Clouds
8:56 AM 76.8 °F - 73.6 °F 90% 30.11 in 10.0 mi East 8.1 mph - N/A   Scattered Clouds
9:56 AM 78.3 °F - 73.9 °F 87% 30.11 in 10.0 mi SE 4.6 mph - N/A   Scattered Clouds
10:56 AM 79.5 °F - 74.1 °F 83% 30.13 in 10.0 mi SE 3.5 mph - N/A   Mostly Cloudy
11:56 AM 81.1 °F 87.0 °F 74.7 °F 81% 30.14 in 10.0 mi South 3.5 mph - N/A   Scattered Clouds
12:56 PM 83.1 °F 90.1 °F 74.3 °F 75% 30.13 in 10.0 mi SSW 5.8 mph - N/A   Partly Cloudy
1:56 PM 84.4 °F 92.0 °F 74.7 °F 72% 30.11 in 10.0 mi South 5.8 mph - N/A   Mostly Cloudy
2:56 PM 89.1 °F 101.4 °F 76.6 °F 67% 30.09 in 10.0 mi SSW 6.9 mph - N/A   Mostly Cloudy
3:17 PM 87.8 °F 97.6 °F 75.2 °F 66% 30.09 in 10.0 mi SW 8.1 mph - N/A   Light Drizzle
3:22 PM 87.8 °F 97.6 °F 75.2 °F 66% 30.09 in 10.0 mi SW 9.2 mph - N/A   Scattered Clouds
3:56 PM 88.7 °F 100.4 °F 76.6 °F 67% 30.08 in 10.0 mi SW 8.1 mph - 0.00 in   Clear
4:56 PM 89.1 °F 99.1 °F 75.2 °F 63% 30.07 in 10.0 mi SW 6.9 mph - N/A   Partly Cloudy
5:56 PM 86.9 °F 97.3 °F 75.9 °F 70% 30.08 in 10.0 mi Calm Calm - N/A   Partly Cloudy
6:56 PM 85.1 °F 94.9 °F 76.3 °F 75% 30.07 in 10.0 mi NW 3.5 mph - N/A   Clear
7:56 PM 82.8 °F 90.1 °F 75.2 °F 78% 30.08 in 10.0 mi Calm Calm - N/A   Clear
8:56 PM 81.3 °F 87.6 °F 75.2 °F 82% 30.09 in 10.0 mi NNW 6.9 mph - N/A   Clear
9:56 PM 80.2 °F 85.5 °F 75.2 °F 85% 30.10 in 10.0 mi NNW 5.8 mph - N/A   Clear
10:56 PM 78.8 °F - 74.1 °F 85% 30.10 in 10.0 mi NNW 4.6 mph - N/A   Partly Cloudy
11:56 PM 77.9 °F - 73.9 °F 88% 30.11 in 10.0 mi East 9.2 mph - N/A   Scattered Clouds